Погода в Керки

Погода в Керки : погода сейчас, прогноз погоды и архив. Всё, что Вы хотите узнать о погоде в Керки!

Хотите узнать прогноз погоды в Керки? Тогда Вам сюда: Погода в Керки

Поиск расширенной информации на нашем сайте:

Другие новости

Новости СМИ2

Главная страница сайта

Новости сайта

03.07.2017

Напоминаем, что на нашем специализированном сайте Метеоцентр.Азия вы можете получить высокодетализированные автоматические прогнозы погоды по пунктам России, СНГ и мира в авиационном формате (включающие направление и скорость ветра, видимость, явления погоды, количество и форму облачности, нижнюю и верхнюю границу облачности).

Рекомендуем: Свежая информация старые книги купить на сайте.

Погода в Керки - сегодня

Время (UTC), дата Ветер
(°,м/с) 
Видим.   Явления Облачность Т
(°С)
Тd
(°С)
f(%) Тe
(°С)
Pmin
(гПа)
dP
(гПа)
Po
(мм)
O2
(г/м3)
Тmin Tmax R s Состояние
почвы
21 21.11.17 150 (ЮВ) 10 км    ясно 
+2.2 -3.1 68 +2  1017  -1.3  740  296           
00 22.11.17 100 (В) 10 км    ясно 
-0.2 -3.3 80 1017  -0.4  740  299           
03 22.11.17 150 (ЮВ) 20000 м    ясно 
-0.8 -2.9 86 -3  1016.8  -0.2  740  299           
06 22.11.17 140 (ЮВ) 20000 м    ясно 
+11.2 -3 37 +10  1015.5  740  287  -1.5         
09 22.11.17 160 (Ю) 20000 м    4/0 верхняя 
[Ci fib]
+19.8 -3.6 20 +21  1012.3  -1.4  738  278           
12 22.11.17 170 (Ю) 20000 м    8/0 верхняя 
[Ci sp]
+19.6 -2.2 23 +20  1012.1  -1.1  738  278           
15 22.11.17 130 (ЮВ) 10 км    8/0 верхняя 
[Ci sp]
+10.6 +0 48 +12  1012.5  -0.5  738  286    +21       
18 22.11.17 150 (ЮВ) 10 км    6/0 верхняя 
[Ci sp]
+5 +1.7 79 +5  1013.7  0.7  738  292    +21       
21 22.11.17 130 (ЮВ) 10 км    9/0 средняя, верхняя 
[Ac As|Ci sp]
+8.6 +1.9 63 +8  1013.2  -0.2  738  288           
00 23.11.17 140 (ЮВ) 10 км    9/0 средняя, верхняя 
[Ac As|Ci sp]
+9.4 +2.3 61 +9  1012.9  -0.2  738  287           
03 23.11.17 160 (Ю) 20000 м    9/0 средняя, верхняя 
[Ac As|Ci sp]
+10.6 +0.6 50 +9  1013.2  0.4  738  286           
06 23.11.17 150 (ЮВ) 20000 м    6/0 верхняя 
[Ci sp]
+16.6 +2.1 38 +16  1013.4  0.7  739  280  +4.8         
09 23.11.17 160 (Ю) 20000 м    ясно 
+22.8 +0.2 22 +23  1010.6  -2  737  274           
12 23.11.17 150 (ЮВ) 20000 м    ясно 
+22 -1.7 20 +22  1010.3  -0.4  737  275           
15 23.11.17 150 (ЮВ) 10 км    ясно 
+14.4 -0.9 35 +15  1011.3  0.2  737  282    +23.6       
18 23.11.17 160 (Ю) 10 км    ясно 
+12.1 +0.9 46 +12  1011.8  737  284    +23.6       
21 23.11.17 тихо ()   10 км    5/0 верхняя 
[Ci sp]
+10 +1.7 56 +10  1011.1  -0.6  737  286           
00 24.11.17 350 (С) 10 км    9/0 верхняя 
[Ci sp]
+11.8 +3.4 56 +12  1011.9  737  284           
03 24.11.17 340 (С) 20000 м    9/3 1000 м кучево-дожд., средняя 
[Cb cap|Ac As]
+12.2 +2.9 53 +13  1015  740  285           
06 24.11.17 тихо ()   20000 м    10/4 1000 м кучево-дожд., средняя 
[Cb cap|Ac As]
+14.8 +4 48 +15  1017.2  2.4  741  283  +9.7         
09 24.11.17 270 (З) 20000 м    10/3 1000 м кучево-дожд., средняя 
[Cb cap|Ac As]
+15.8 +5.9 52 +16  1017.1  741  281           
12 24.11.17 350 (С) 20000 м    10/1 1000 м кучево-дожд., средняя 
[Cb cap|Ac As]
+14.6 +6.5 58 +16  1016.8  -0.4  741  282           
15 24.11.17 330 (СЗ) 10 км    10/3 1000 м кучево-дожд., средняя 
[Cb cap|Ac As]
+13.2 +7.7 69 +14  1017  741  284    +16.4       
18 24.11.17 тихо ()   10 км    ясно 
+8 +4.6 79 +8  1017.1  -0.4  741  289    +16.4       
21 24.11.17 140 (ЮВ) 10 км    ясно 
+6.2 +2.8 79 +7  1017.3  741  291           
Время (UTC), дата Ветер
(°,м/с) 
Видим.   Явления Облачность Т
(°С)
Тd
(°С)
f(%) Тe
(°С)
Pmin
(гПа)
dP
(гПа)
Po
(мм)
O2
(г/м3)
Тmin Tmax R s Состояние
почвы

Для получения пояснительной информации подведите курсор к названию столбца.

ПОГОДА в Керки - архив

Всё, что Вы хотите узнать о погоде в Керки - удобно и подробно!

Выберите нужную дату (начиная с 1 января 2015* года) и нажмите кнопку "Найти".
Будут отображены архивные сводки погоды по пункту Керки, начиная с указанной даты.


Отображать данные в формате CSV (для использования в таблицах Excel)


Внимание! Наш архив погоды предназначен исключительно для личного некоммерческого использования в познавательных целях. Если Вам необходимы официальные справки о состоянии погоды (для производственных, юридических, коммерческих и т.п. целей), обращайтесь в органы Росгидромета.

*Примечание: данная дата относится к архиву по метеостанциям СССР (Россия, СНГ, Балтия).
Архив по метеостанциям Зарубежной Европы и Азии (кроме Китая) хранится 10 дней, по другим регионам земного шара (Китай, Африка, Америка, Австралия, Океания) - 1 день.

Керки - район местоположения метеостанции


Название, широта, долгота, высота метеостанции:
Керки 37.8°ш. 65.2°д. 240 м над ур. моря [Туркменистан]

Дополнительная информация

В oтличие oт бoльшинства пoгoдных сайтoв мы публикуем пoдрoбную метеoинфoрмацию в детальнoм прoфессиoнальнoм фoрмате.

Характеристики температуры и влажнoсти вoздуха измеряются на высoте 2 м в тени вдали oт зданий и деревьев.
Скoрoсть ветра измеряется на высoте 10 м (на урoвне рoста челoвека скoрoсть ветра ниже в 1.5-2 раза). Если метеoстанция нахoдится в гoрoде или в лесу, тo скoрoсть ветра занижена на 2-4 м/с пo сравнению с oткрытым местoм. Скoрoсть ветра над акватoриями крупных рек и oзёр, а также на вершинах хoлмoв на 2-5 м/с выше, чем в oбычных услoвиях.
Атмoсфернoе давление в разных тoчках местнoсти мoжет значительнo oтличаться oт давления на метеoстанции, в зависимoсти oт услoвий рельефа (при пoдъёме на 10 м давление пoнижается примернo на 1 мм рт.ст.).